SKYSAT-C8 (42990 NORAD) Tracking and Keplerian Element Data

This shows tracking and keplerian element data for the satellite.

Feedback or suggestion? Click here.




ElementValue
Catalog42990
NameSKYSAT-C8
Epoch Orbit40596
Epoch Day34.79772778
Epoch Year2025
RAAN164.8873
Inclination97.3882
Eccentricity0.0002209
Argument of Perigee144.8055
Mean Anonmoly215.3331
Mean Motion15.29961714
Decay Rate0.0001666
L11 42990U 17068D 25034.79772778 .00016660 00000+0 57630-3 0 9996
L22 42990 97.3882 164.8873 0002209 144.8055 215.3331 15.29961714405967



Live tracking and technical data element details for SKYSAT-C8 (NORAD 42990). SKYSAT-C8 can be tracked NOW for your location showing map with azimuth and elevation plus other details from your city location.







IsCatalogInMostPopularTable: catalog: 42990, numindb: 738
Update: records affected: 1



GetName: 42990 SKYSAT-C8

Hit Count: updated at: Sat, 17 May 2025 08:54:52 GMT